STARLINK-31888, 59788

Orbit data source: Space-Track

STARLINK-31888, 59788 is a payload satellite owned by SpaceX/Seattle (US) in LEO that was launched on Sat, 18 May 2024 UTC via an FALCON 9 launch vehicle from the Air Force Eastern Test Range (AFETR). Payload-class satellites include a variety of spacecraft equipped with specific instruments for various scientific and technological missions. These include communications satellites like Starlink; space stations such as the ISS; scientific satellites like the Hubble; Earth observation satellites from companies like Planet Labs, Umbra, and HawkEye 360; GPS; miniature CubeSats for education and research; and military/defense satellites.

Loading next visibility...
Identifier
59788, 2024-093G
Orbit
LEO
Last TLE update
23 hours ago
Origin
Manufacturer
SpaceX/Seattle
Mission
Operational spacecraft
Bus & Motor
STARLINK V2M, Unknown motor
Mass
730 kg wet, ~700 kg dry
Launch date (UTC)
2024-05-18 (1 year ago)
Launch vehicle
FALCON 9
Launch site
Air Force Eastern Test Range (AFETR)
Object type
Payload
Rocket body
Debris
Shape & HBR
Unknown
Radar Cross Section
Large (>1 m²)

Expand to show TLE details & history

TLE from 23 hours ago
0 STARLINK-31888
1 59788U 24093G   25188.39460815 -.00000214  00000-0  17679-5 0  9998
2 59788  43.0107 153.9275 0001056 252.0044 108.0693 15.27576682 65181
Epoch: 2025-07-07T09:28Z
TLE epoch observation values (Epoch: 2025-07-07T09:28:14.144Z)
Latitude
0.00001°
Longitude
86.26401°
Altitude
483.06 km
Speed
7.626 km/s
True Right ascension
10h 15m 42s
True Declination
0° 00' 00"
Sunlit
Object was in daylight at epoch
Visualization orbit readout
Latitude
4.01923°
Longitude
-103.38141°
Altitude
482.328 km
Speed
7.626 km/s
Apparent Right ascension
00h 03m 49s
Apparent Declination
-52° 10' 48"
Sunlit
Object is in full shadow
Visualization observer readout
Local Sidereal Time
20:17:36
Azimuth
148.124° SSE
Elevation
-14.339°
Doppler factor
1
Orbital elements
Apogee altitude
485.727 km
Perigee altitude
484.278 km
Semi-major axis
6,863.139 km
Eccentricity
0.00011
Inclination
43.0107°
RAAN
153.9275°
Arg. of periapsis
252.0044°
True anomaly
Unknown
Mean anomaly
108.0693°
Eccentric anomaly
Unknown
Mean motion
3.81732 °/min
Orbital period
94.31 mins
BSTAR
0.0000017679
Loading maneuver chart data...
Loading SW <> Apogee altitude chart data...
Loading historical data...
Loading historical data...
Loading historical data...
Loading historical data...
Loading historical data...
Loading historical data...
Loading historical data...

STARLINK-31888 Visibility forecast

Observer location: undefined°, undefined°

Span
Click to sort rows by Start time (UTC) header in descending order
Start Az.
Max El. time (UTC)
Max El. Az.
Max El.
End time (UTC)
End Az.
6 mins2025-07-09 00:55:55.906Z223.539° SW2025-07-09 00:57:55.906Z177.308° S36.832°2025-07-09 01:01:55.906Z77.762° E
6 mins2025-07-09 02:34:55.906Z276.295° WNW2025-07-09 02:36:55.906Z324.199° NNW39.547°2025-07-09 02:40:55.906Z71.398° E
6 mins2025-07-09 04:13:55.906Z293.153° NW2025-07-09 04:16:55.906Z42.411° NE38.774°2025-07-09 04:19:55.906Z88.652° E
6 mins2025-07-09 05:52:55.906Z277.034° WNW2025-07-09 05:55:55.906Z176.412° S36.447°2025-07-09 05:58:55.906Z130° SE
|